Location: Kershaw
(34.5481°N, 80.5823°W)
Time: 15:22:48
(UTC+00:00)

Vanguard 1 Rocket - Pass Details

Date: 07 October 2022
Orbit: 650 x 4225 km, 34.3° (Epoch: 08 December)

Event Time Altitude Azimuth Distance (km) Brightness Sun altitude
Rises 00:15:19 0° 247° (WSW) 8,464 13.5 -16.4°
Reaches altitude 10° 00:21:25 10° 247° (WSW) 7,342 12.9 -17.7°
Maximum altitude 00:45:40 80° 165° (SSE) 3,033 9.8 -22.6°
Enters shadow 00:54:15 32° 84° (E) 3,427 9.7 -24.4°
Drops below altitude 10° 00:58:48 10° 81° (E) 4,353 - -25.3°
Sets 01:01:25 0° 80° (E) 5,010 - -25.8°
